Regional Weather Roundup
Issued by NWS

Home | Current Version | Previous Version | Graphics & Text | Print | Product List | Glossary On
Versions: 1 2 3 4 5 6 7 8 9 10 11 12 13 14 15 16 17 18 19 20 21 22 23 24 25 26 27 28 29 30 31 32 33 34 35 36 37 38 39 40 41 42 43 44 45 46 47 48 49 50
000
ASUS43 KIND 261809
RWRIN

WEATHER ROUNDUP FOR INDIANA
NATIONAL WEATHER SERVICE INDIANAPOLIS IN
100 PM EST FRI DEC 26 2014

NOTE: "FAIR" INDICATES FEW OR NO CLOUDS BELOW 12,000 FEET WITH NO
SIGNIFICANT WEATHER AND/OR OBSTRUCTIONS TO VISIBILITY.

* - STATION DOES NOT REPORT WEATHER SUCH AS PRECIPITATION OR FOG.

+ - STATION NOT QUALITY CONTROLLED BY THE NATIONAL WEATHER SERVICE.
    USE DATA WITH CAUTION...ESPECIALLY DEWPOINT AND RELATIVE
    HUMIDITY OBSERVATIONS.

INZ001>003-010>013-019-020-261900-
NORTHWEST INDIANA

CITY           SKY/WX    TMP DP  RH WIND       PRES   REMARKS
GARY /AIRPORT/ MOSUNNY   48  34  57 SW17      30.04F
KNOX *+        FAIR      48  36  61 SW13      30.05F
LA PORTE +     FAIR      49  40  70 SW14      30.05F
6HR MIN TEMP:  34; 6HR MAX TEMP:  49;

MICHIGAN CITY+ FAIR      46  34  61 SW10      30.04F
MONTICELLO +   FAIR      47  40  74 SW15      30.07F
RENSSELAER +   FAIR      50  45  81 SW16G22   30.06F
VALPARAISO     FAIR      48  38  68 SW13      30.05F
6HR MIN TEMP:  32; 6HR MAX TEMP:  48;


$$

LMZ046-743>745-261900-
SOUTHERN LAKE MICHIGAN

STATION/POSITION TIME  TEMP WIND        PRES
                       AIR  DIR/SP/G
                 (UTC) (F)  (DEG/KT/KT) (MB)
MICHIGAN CITY    1800   46  180/ 15/ 18   N/A

$$

INZ004-005-014>016-021>024-261900-
NORTH CENTRAL INDIANA

CITY           SKY/WX    TMP DP  RH WIND       PRES   REMARKS
ELKHART        FAIR      48  34  57 S8        30.06F
GOSHEN         FAIR      47  38  71 SW14      30.06F
6HR MIN TEMP:  34; 6HR MAX TEMP:  47;

LOGANSPORT +   FAIR      48  39  71 SW15      30.10F
PERU/GRISSOM   FAIR      49  46  88 SW12      30.09F
6HR MIN TEMP:  35; 6HR MAX TEMP:  49;

ROCHESTER +    FAIR      50  41  71 S13       30.09F
SOUTH BEND     NOT AVBL
WARSAW +       FAIR      46  36  66 SW7       30.08F

$$

INZ006>009-017-018-025>027-261900-
NORTHEAST INDIANA

CITY           SKY/WX    TMP DP  RH WIND       PRES   REMARKS
ANGOLA *+      SUNNY     46  37  71 SW9       30.06F
AUBURN +       FAIR      46  36  66 SW8       30.09F
FORT WAYNE     PTSUNNY   46  38  73 SW16      30.12S
6HR MIN TEMP:  33; 6HR MAX TEMP:  46;

HUNTINGTON +   FAIR      46  38  75 SW13      30.11S
6HR MIN TEMP:  35; 6HR MAX TEMP:  46;


$$

INZ028-029-035-036-043>045-051>053-261900-
WEST CENTRAL INDIANA

CITY           SKY/WX    TMP DP  RH WIND       PRES   REMARKS
CRAWFORDSVL +  FAIR      45  36  70 S16       30.11
GREENCASTLE +  FAIR      46  34  61 SW6       30.13F
LAFAYETTE      FAIR      49  39  68 SW12G18   30.09F
6HR MIN TEMP:  36; 6HR MAX TEMP:  49;

TERRE HAUTE    FAIR      48  39  71 SW14      30.14F
6HR MIN TEMP:  36; 6HR MAX TEMP:  49;


$$

INZ030>032-037>040-046>048-054>057-064-065-261900-
CENTRAL INDIANA

CITY           SKY/WX    TMP DP  RH WIND       PRES   REMARKS
ANDERSON       SUNNY     46  37  71 S16G22    30.15F
CP ATTERBURY + FAIR      54  39  58 MISG      30.16F
FRANKFORT +    FAIR      48  41  76 S14       30.12F
GREENWOOD *+   FAIR      48  37  66 SW8       30.15F
INDIANAPOLIS   PTSUNNY   49  38  65 SW13      30.13F
6HR MIN TEMP:  31; 6HR MAX TEMP:  49;

-EAGLE CREEK   FAIR      49  38  65 SW12G20   30.13F
6HR MIN TEMP:  29; 6HR MAX TEMP:  49;

KOKOMO *+      FAIR     N/A N/A N/A SW17G23   30.10F
MARION +       FAIR      45  38  76 SW13G20   30.12F
MT COMFORT *+  FAIR      48  34  57 SW13      30.14F
SHELBYVILLE    FAIR      50  39  66 S12       30.15F
6HR MIN TEMP:  35; 6HR MAX TEMP:  50;

ZIONSVILLE +   FAIR      47  38  69 SW13G20   30.12F
6HR MIN TEMP:  33; 6HR MAX TEMP:  47;


$$

INZ033-034-041-042-049-050-058-059-261900-
EAST CENTRAL INDIANA

CITY           SKY/WX    TMP DP  RH WIND       PRES   REMARKS
MUNCIE         FAIR      46  37  71 SW17G25   30.13F
6HR MIN TEMP:  36; 6HR MAX TEMP:  46;


$$

INZ060-061-067>069-081>083-085>088-261900-
SOUTHWEST INDIANA

CITY           SKY/WX    TMP DP  RH WIND       PRES   REMARKS
EVANSVILLE     FAIR      54  41  61 SW13G22   30.18F
6HR MIN TEMP:  35; 6HR MAX TEMP:  54;

HUNTINGBURG *+ FAIR      52  39  62 S10       30.19F
6HR MIN TEMP:  36; 6HR MAX TEMP:  52;

WASHINGTON +   FAIR      52  38  58 SW13G18   30.15F
6HR MIN TEMP:  35; 6HR MAX TEMP:  52;


$$

INZ062-063-066-070>080-084-089>092-261900-
SOUTH CENTRAL AND SOUTHEAST INDIANA

CITY           SKY/WX    TMP DP  RH WIND       PRES   REMARKS
BLOOMINGTON    FAIR      51  41  68 SW17G25   30.15F
6HR MIN TEMP:  36; 6HR MAX TEMP:  52;

NORTH VERNON + FAIR      48  37  66 S6        30.19

$$



USA.gov is the U.S. government's official web portal to all federal, state and local government web resources and services.